Weather History for Genoa, Italy

Change the Weather History Date:

Friday, October 4, 2013

  Actual Average Record
Temperature  
Mean Temperature 62 °F -  
Max Temperature 64 °F 68 °F 77 °F (1997)
Min Temperature 60 °F 56 °F 53 °F (2005)
Degree Days  
Heating Degree Days 3    
Growing Degree Days 12 (Base 50)    
Moisture  
Dew Point 51 °F    
Average Humidity 68    
Maximum Humidity 77    
Minimum Humidity 63    
Precipitation  
Precipitation 0.00 in 0.19 in - ()
Sea Level Pressure  
Sea Level Pressure 30.24 in    
Wind  
Wind Speed 9 mph ()    
Max Wind Speed 15 mph    
Max Gust Speed -    
Visibility 5.5 miles    
Events Rain    
Averages and records for this station are not official NWS values.
T = Trace of Precipitation, MM = Missing Value Source: Averaged Metar Reports

Daily Weather History Graph

Daily Weather History Graph

Search for Another Location

Airport:

Trip Planner

Search our weather history database for the weather conditions in past years. The results will help you decide how hot, cold, wet, or windy it might be!

Date:

Astronomy

Oct. 04, 2013 Rise Set
Actual Time 7:26 AM CEST 6:59 PM CEST
Civil Twilight 6:57 AM CEST 7:28 PM CEST
Nautical Twilight 6:23 AM CEST 8:02 PM CEST
Astronomical Twilight 5:49 AM CEST 8:36 PM CEST
Moon 6:44 AM CEST (10/4) 6:32 PM CEST (10/4)
Length of Visible Light 12h 31m
Length of Day
11h 33m
Waning Crescent, 0% of the Moon is Illuminated
Oct 4
Waning Crescent
Oct 5
New
Oct 12
First Quarter
Oct 19
Full
Oct 27
Last Quarter

Hourly Weather History & Observations

Time (CEST) Temp. Dew Point Humidity Pressure Visibility Wind Dir Wind Speed Gust Speed Precip Events Conditions
12:20 AM 64.4 °F 51.8 °F 64% 30.24 in 6.2 mi ENE 4.6 mph - N/A   Mostly Cloudy
12:50 AM 64.4 °F 51.8 °F 64% 30.24 in 6.2 mi NE 6.9 mph - N/A   Mostly Cloudy
1:20 AM 62.6 °F 51.8 °F 68% 30.24 in 6.2 mi ENE 10.4 mph - N/A   Mostly Cloudy
1:50 AM 62.6 °F 50.0 °F 63% 30.24 in 6.2 mi ENE 10.4 mph - N/A   Mostly Cloudy
2:20 AM 62.6 °F 50.0 °F 63% 30.24 in 6.2 mi NE 9.2 mph - N/A   Mostly Cloudy
2:50 AM 62.6 °F 50.0 °F 63% 30.24 in 6.2 mi ENE 9.2 mph - N/A   Mostly Cloudy
3:20 AM 62.6 °F 50.0 °F 63% 30.24 in 6.2 mi NE 9.2 mph - N/A   Mostly Cloudy
3:50 AM 62.6 °F 50.0 °F 63% 30.24 in 6.2 mi NE 6.9 mph - N/A   Mostly Cloudy
4:20 AM 60.8 °F 50.0 °F 68% 30.24 in 6.2 mi NE 8.1 mph - N/A   Mostly Cloudy
4:50 AM 60.8 °F 50.0 °F 68% 30.24 in 6.2 mi NE 6.9 mph - N/A   Mostly Cloudy
5:20 AM 60.8 °F 50.0 °F 68% 30.24 in 6.2 mi NE 8.1 mph - N/A   Mostly Cloudy
6:20 AM 60.8 °F 50.0 °F 68% 30.24 in 6.2 mi NE 11.5 mph - N/A   Mostly Cloudy
6:50 AM 60.8 °F 50.0 °F 68% 30.24 in 6.2 mi NE 10.4 mph - N/A   Mostly Cloudy
7:50 AM 60.8 °F 50.0 °F 68% 30.24 in 5.0 mi NE 12.7 mph - N/A   Mostly Cloudy
8:20 AM 60.8 °F 50.0 °F 68% 30.24 in 5.0 mi NE 13.8 mph - N/A   Mostly Cloudy
8:50 AM 60.8 °F 50.0 °F 68% 30.24 in 5.0 mi NE 15.0 mph - N/A   Mostly Cloudy
9:20 AM 60.8 °F 50.0 °F 68% 30.27 in 5.0 mi NE 13.8 mph - N/A   Mostly Cloudy
9:50 AM 60.8 °F 50.0 °F 68% 30.27 in 5.0 mi NE 11.5 mph - N/A   Mostly Cloudy
10:20 AM 62.6 °F 50.0 °F 63% 30.27 in 5.0 mi NE 8.1 mph - N/A   Mostly Cloudy
10:50 AM 62.6 °F 50.0 °F 63% 30.27 in 5.0 mi NE 11.5 mph - N/A   Mostly Cloudy
11:20 AM 60.8 °F 50.0 °F 68% 30.27 in 5.0 mi NE 12.7 mph - N/A   Mostly Cloudy
11:50 AM 62.6 °F 50.0 °F 63% 30.27 in 5.0 mi NE 11.5 mph - N/A   Mostly Cloudy
12:20 PM 62.6 °F 50.0 °F 63% 30.27 in 5.0 mi NE 11.5 mph - N/A   Mostly Cloudy
12:50 PM 62.6 °F 50.0 °F 63% 30.27 in 5.0 mi NE 10.4 mph - N/A   Mostly Cloudy
1:20 PM 62.6 °F 51.8 °F 68% 30.27 in 5.0 mi NE 11.5 mph - N/A   Mostly Cloudy
1:50 PM 62.6 °F 51.8 °F 68% 30.27 in 5.0 mi NE 10.4 mph - N/A   Mostly Cloudy
2:20 PM 62.6 °F 51.8 °F 68% 30.24 in 5.0 mi NE 11.5 mph - N/A   Mostly Cloudy
2:50 PM 62.6 °F 51.8 °F 68% 30.24 in 5.0 mi NE 13.8 mph - N/A   Mostly Cloudy
3:20 PM 62.6 °F 51.8 °F 68% 30.24 in 5.0 mi NE 11.5 mph - N/A   Mostly Cloudy
3:50 PM 64.4 °F 51.8 °F 64% 30.24 in 5.0 mi NE 10.4 mph - N/A   Mostly Cloudy
4:20 PM 62.6 °F 51.8 °F 68% 30.21 in 5.0 mi NE 12.7 mph - N/A   Mostly Cloudy
4:50 PM 62.6 °F 51.8 °F 68% 30.24 in 5.0 mi NE 12.7 mph - N/A   Mostly Cloudy
5:20 PM 62.6 °F 51.8 °F 68% 30.21 in 5.0 mi NE 15.0 mph - N/A   Mostly Cloudy
5:50 PM 62.6 °F 51.8 °F 68% 30.24 in 5.0 mi NNE 8.1 mph - N/A   Mostly Cloudy
6:20 PM 62.6 °F 51.8 °F 68% 30.24 in 5.0 mi NE 10.4 mph - N/A   Mostly Cloudy
6:50 PM 62.6 °F 51.8 °F 68% 30.21 in 5.0 mi NE 12.7 mph - N/A   Mostly Cloudy
7:20 PM 62.6 °F 51.8 °F 68% 30.24 in 5.0 mi NNE 8.1 mph - N/A   Mostly Cloudy
7:50 PM 62.6 °F 51.8 °F 68% 30.24 in 5.0 mi NE 10.4 mph - N/A   Mostly Cloudy
8:20 PM 62.6 °F 51.8 °F 68% 30.24 in 5.0 mi NNE 9.2 mph - N/A   Mostly Cloudy
8:50 PM 62.6 °F 53.6 °F 72% 30.21 in 5.0 mi NE 11.5 mph - N/A Rain Light Rain
9:20 PM 60.8 °F 53.6 °F 77% 30.21 in 5.0 mi NNE 12.7 mph - N/A Rain Light Rain
9:50 PM 60.8 °F 53.6 °F 77% 30.21 in 6.2 mi NE 6.9 mph - N/A   Mostly Cloudy
10:20 PM 60.8 °F 53.6 °F 77% 30.21 in 6.2 mi NE 11.5 mph - N/A   Mostly Cloudy
10:50 PM 60.8 °F 51.8 °F 72% 30.21 in 6.2 mi NE 10.4 mph - N/A   Mostly Cloudy
11:20 PM 60.8 °F 51.8 °F 72% 30.18 in 6.2 mi NE 11.5 mph - N/A   Mostly Cloudy
11:50 PM 60.8 °F 51.8 °F 72% 30.18 in 6.2 mi NE 8.1 mph - N/A   Mostly Cloudy